Time,TemperatureF,DewpointF,PressureIn,WindDirection,WindDirectionDegrees,WindSpeedMPH,WindSpeedGustMPH,Humidity,HourlyPrecipIn,Conditions,Clouds,dailyrainin,SolarRadiationWatts/m^2,SoftwareType,DateUTC
2013-08-23 00:06:00,67.5,63.0,29.94,WSW,258,1.0,-999.0,86,-99.99,,,0.00,0,weatherlink.com 1.10,2013-08-23 04:06:00,
2013-08-23 00:21:00,67.0,63.0,29.95,WSW,258,0.0,-999.0,86,-99.99,,,0.00,0,weatherlink.com 1.10,2013-08-23 04:21:00,
2013-08-23 00:36:00,66.6,63.0,29.95,WSW,258,0.0,-999.0,87,-99.99,,,0.00,0,weatherlink.com 1.10,2013-08-23 04:36:00,
2013-08-23 00:51:00,66.1,63.0,29.96,WSW,258,0.0,-999.0,88,-99.99,,,0.00,0,weatherlink.com 1.10,2013-08-23 04:51:00,
2013-08-23 01:06:00,65.7,62.0,29.96,WSW,258,0.0,-999.0,89,-99.99,,,0.00,0,weatherlink.com 1.10,2013-08-23 05:06:00,
2013-08-23 01:21:00,65.2,62.0,29.96,WSW,258,0.0,-999.0,89,-99.99,,,0.00,0,weatherlink.com 1.10,2013-08-23 05:21:00,
2013-08-23 01:36:00,64.9,62.0,29.96,WSW,258,0.0,-999.0,90,-99.99,,,0.00,0,weatherlink.com 1.10,2013-08-23 05:36:00,
2013-08-23 01:51:00,64.6,62.0,29.96,WSW,258,0.0,-999.0,90,-99.99,,,0.00,0,weatherlink.com 1.10,2013-08-23 05:51:00,
2013-08-23 02:07:00,64.3,62.0,29.96,WSW,258,0.0,-999.0,91,-99.99,,,0.00,0,weatherlink.com 1.10,2013-08-23 06:07:00,
2013-08-23 02:22:00,64.0,61.0,29.97,WSW,258,0.0,-999.0,91,-99.99,,,0.00,0,weatherlink.com 1.10,2013-08-23 06:22:00,
2013-08-23 02:37:00,63.6,61.0,29.97,WSW,258,0.0,-999.0,91,-99.99,,,0.00,0,weatherlink.com 1.10,2013-08-23 06:37:00,
2013-08-23 02:52:00,63.2,61.0,29.97,WSW,258,0.0,-999.0,92,-99.99,,,0.00,0,weatherlink.com 1.10,2013-08-23 06:52:00,
2013-08-23 03:07:00,63.0,61.0,29.97,WSW,258,0.0,-999.0,92,-99.99,,,0.00,0,weatherlink.com 1.10,2013-08-23 07:07:00,
2013-08-23 03:22:00,62.8,61.0,29.98,WSW,258,0.0,-999.0,92,-99.99,,,0.00,0,weatherlink.com 1.10,2013-08-23 07:22:00,
2013-08-23 03:37:00,62.4,60.0,29.97,WSW,258,0.0,-999.0,93,-99.99,,,0.00,0,weatherlink.com 1.10,2013-08-23 07:37:00,
2013-08-23 03:52:00,62.0,60.0,29.97,WSW,258,0.0,-999.0,93,-99.99,,,0.00,0,weatherlink.com 1.10,2013-08-23 07:52:00,
2013-08-23 04:07:00,61.6,60.0,29.97,WSW,258,0.0,-999.0,93,-99.99,,,0.00,0,weatherlink.com 1.10,2013-08-23 08:07:00,
2013-08-23 04:22:00,61.2,59.0,29.97,WSW,258,0.0,-999.0,93,-99.99,,,0.00,0,weatherlink.com 1.10,2013-08-23 08:22:00,
2013-08-23 04:37:00,60.8,59.0,29.97,WSW,258,0.0,-999.0,93,-99.99,,,0.00,0,weatherlink.com 1.10,2013-08-23 08:37:00,
2013-08-23 04:52:00,60.6,59.0,29.97,WSW,258,0.0,-999.0,93,-99.99,,,0.00,0,weatherlink.com 1.10,2013-08-23 08:52:00,
2013-08-23 05:07:00,60.3,58.0,29.98,WSW,258,0.0,-999.0,93,-99.99,,,0.00,0,weatherlink.com 1.10,2013-08-23 09:07:00,
2013-08-23 05:22:00,60.0,58.0,29.98,WSW,258,0.0,-999.0,93,-99.99,,,0.00,0,weatherlink.com 1.10,2013-08-23 09:22:00,
2013-08-23 05:37:00,59.8,58.0,29.99,WSW,258,0.0,-999.0,93,-99.99,,,0.00,0,weatherlink.com 1.10,2013-08-23 09:37:00,
2013-08-23 05:52:00,59.3,58.0,30.00,WSW,258,0.0,-999.0,94,-99.99,,,0.00,0,weatherlink.com 1.10,2013-08-23 09:52:00,
2013-08-23 06:07:00,59.1,57.0,30.00,WSW,258,0.0,-999.0,94,-99.99,,,0.00,0,weatherlink.com 1.10,2013-08-23 10:07:00,
2013-08-23 06:22:00,58.8,57.0,30.00,WSW,258,0.0,-999.0,94,-99.99,,,0.00,0,weatherlink.com 1.10,2013-08-23 10:22:00,
2013-08-23 06:37:00,58.7,57.0,30.01,WSW,258,0.0,-999.0,94,-99.99,,,0.00,11,weatherlink.com 1.10,2013-08-23 10:37:00,
2013-08-23 06:52:00,58.7,57.0,30.02,WSW,258,0.0,-999.0,94,-99.99,,,0.00,25,weatherlink.com 1.10,2013-08-23 10:52:00,
2013-08-23 07:07:00,58.9,57.0,30.02,WSW,258,0.0,-999.0,94,-99.99,,,0.00,62,weatherlink.com 1.10,2013-08-23 11:07:00,
2013-08-23 07:22:00,59.4,58.0,30.03,WSW,258,0.0,-999.0,94,-99.99,,,0.00,98,weatherlink.com 1.10,2013-08-23 11:22:00,
2013-08-23 07:37:00,59.8,58.0,30.04,WSW,258,1.0,-999.0,94,-99.99,,,0.00,148,weatherlink.com 1.10,2013-08-23 11:37:00,
2013-08-23 07:52:00,60.6,59.0,30.04,WSW,258,1.0,-999.0,94,-99.99,,,0.00,193,weatherlink.com 1.10,2013-08-23 11:52:00,
2013-08-23 08:08:00,61.9,60.0,30.04,WSW,258,0.0,-999.0,93,-99.99,,,0.00,232,weatherlink.com 1.10,2013-08-23 12:08:00,
2013-08-23 08:23:00,63.1,61.0,30.05,WSW,258,0.0,-999.0,91,-99.99,,,0.00,285,weatherlink.com 1.10,2013-08-23 12:23:00,
2013-08-23 08:38:00,64.9,62.0,30.06,WSW,258,1.0,-999.0,89,-99.99,,,0.00,334,weatherlink.com 1.10,2013-08-23 12:38:00,
2013-08-23 08:53:00,66.5,61.0,30.06,NW,312,4.0,-999.0,82,-99.99,,,0.00,380,weatherlink.com 1.10,2013-08-23 12:53:00,
2013-08-23 09:08:00,67.3,61.0,30.07,NNW,336,2.0,-999.0,79,-99.99,,,0.00,174,weatherlink.com 1.10,2013-08-23 13:08:00,
2013-08-23 09:23:00,67.7,61.0,30.07,West,268,2.0,-999.0,80,-99.99,,,0.00,563,weatherlink.com 1.10,2013-08-23 13:23:00,
2013-08-23 09:38:00,66.9,59.0,30.07,NW,323,6.0,-999.0,76,-99.99,,,0.00,116,weatherlink.com 1.10,2013-08-23 13:38:00,
2013-08-23 09:53:00,66.2,59.0,30.08,NW,306,4.0,-999.0,78,-99.99,,,0.00,134,weatherlink.com 1.10,2013-08-23 13:53:00,
2013-08-23 10:08:00,66.1,59.0,30.08,WNW,301,6.0,-999.0,78,-99.99,,,0.00,232,weatherlink.com 1.10,2013-08-23 14:08:00,
2013-08-23 10:23:00,66.9,60.0,30.08,WNW,298,5.0,-999.0,79,-99.99,,,0.00,765,weatherlink.com 1.10,2013-08-23 14:23:00,
2013-08-23 10:38:00,68.5,60.0,30.08,NNW,334,3.0,-999.0,74,-99.99,,,0.00,745,weatherlink.com 1.10,2013-08-23 14:38:00,
2013-08-23 10:53:00,69.2,59.0,30.08,NW,313,5.0,-999.0,70,-99.99,,,0.00,724,weatherlink.com 1.10,2013-08-23 14:53:00,
2013-08-23 11:08:00,69.8,59.0,30.08,North,11,1.0,-999.0,68,-99.99,,,0.00,768,weatherlink.com 1.10,2013-08-23 15:08:00,
2013-08-23 11:23:00,70.7,59.0,30.08,NNW,330,5.0,-999.0,67,-99.99,,,0.00,200,weatherlink.com 1.10,2013-08-23 15:23:00,
2013-08-23 11:38:00,70.4,58.0,30.08,NNW,333,4.0,-999.0,65,-99.99,,,0.00,214,weatherlink.com 1.10,2013-08-23 15:38:00,
2013-08-23 11:53:00,70.8,59.0,30.09,NNW,331,6.0,-999.0,67,-99.99,,,0.00,193,weatherlink.com 1.10,2013-08-23 15:53:00,
2013-08-23 12:08:00,71.0,59.0,30.08,North,355,2.0,-999.0,65,-99.99,,,0.00,933,weatherlink.com 1.10,2013-08-23 16:08:00,
2013-08-23 12:23:00,70.9,58.0,30.09,WNW,284,7.0,-999.0,65,-99.99,,,0.00,939,weatherlink.com 1.10,2013-08-23 16:23:00,
2013-08-23 12:38:00,71.1,59.0,30.08,North,5,7.0,-999.0,65,-99.99,,,0.00,923,weatherlink.com 1.10,2013-08-23 16:38:00,
2013-08-23 12:53:00,71.0,58.0,30.08,NW,314,5.0,-999.0,64,-99.99,,,0.00,907,weatherlink.com 1.10,2013-08-23 16:53:00,
2013-08-23 13:08:00,71.3,58.0,30.09,NW,321,10.0,-999.0,64,-99.99,,,0.00,214,weatherlink.com 1.10,2013-08-23 17:08:00,
2013-08-23 13:23:00,71.3,58.0,30.09,NW,314,8.0,-999.0,63,-99.99,,,0.00,949,weatherlink.com 1.10,2013-08-23 17:23:00,
2013-08-23 13:38:00,71.5,58.0,30.10,NW,304,6.0,-999.0,62,-99.99,,,0.00,953,weatherlink.com 1.10,2013-08-23 17:38:00,
2013-08-23 13:53:00,72.1,58.0,30.10,WNW,290,10.0,-999.0,62,-99.99,,,0.00,953,weatherlink.com 1.10,2013-08-23 17:53:00,
2013-08-23 14:08:00,72.2,58.0,30.10,NNE,14,7.0,-999.0,62,-99.99,,,0.00,858,weatherlink.com 1.10,2013-08-23 18:08:00,
2013-08-23 14:23:00,72.0,58.0,30.10,NNW,333,7.0,-999.0,61,-99.99,,,0.00,838,weatherlink.com 1.10,2013-08-23 18:23:00,
2013-08-23 14:38:00,71.4,59.0,30.10,NE,34,6.0,-999.0,64,-99.99,,,0.00,819,weatherlink.com 1.10,2013-08-23 18:38:00,
2013-08-23 14:53:00,71.9,59.0,30.10,NNW,348,6.0,-999.0,63,-99.99,,,0.00,784,weatherlink.com 1.10,2013-08-23 18:53:00,
2013-08-23 15:08:00,71.4,59.0,30.10,NW,319,2.0,-999.0,64,-99.99,,,0.00,798,weatherlink.com 1.10,2013-08-23 19:08:00,
2013-08-23 15:23:00,70.8,59.0,30.11,North,355,6.0,-999.0,66,-99.99,,,0.00,733,weatherlink.com 1.10,2013-08-23 19:23:00,
2013-08-23 15:38:00,71.1,57.0,30.11,NNW,333,7.0,-999.0,62,-99.99,,,0.00,703,weatherlink.com 1.10,2013-08-23 19:38:00,
2013-08-23 15:53:00,71.1,58.0,30.10,NW,315,7.0,-999.0,63,-99.99,,,0.00,666,weatherlink.com 1.10,2013-08-23 19:53:00,
2013-08-23 16:08:00,71.3,57.0,30.10,North,355,11.0,-999.0,60,-99.99,,,0.00,635,weatherlink.com 1.10,2013-08-23 20:08:00,
2013-08-23 16:23:00,71.1,55.0,30.10,NNW,336,4.0,-999.0,58,-99.99,,,0.00,596,weatherlink.com 1.10,2013-08-23 20:23:00,
2013-08-23 16:38:00,70.9,55.0,30.11,NNW,333,7.0,-999.0,58,-99.99,,,0.00,554,weatherlink.com 1.10,2013-08-23 20:38:00,
2013-08-23 16:53:00,71.3,55.0,30.11,North,355,12.0,-999.0,57,-99.99,,,0.00,513,weatherlink.com 1.10,2013-08-23 20:53:00,
2013-08-23 17:08:00,70.9,55.0,30.11,NNW,348,9.0,-999.0,57,-99.99,,,0.00,466,weatherlink.com 1.10,2013-08-23 21:08:00,
2013-08-23 17:24:00,70.7,56.0,30.11,NW,318,4.0,-999.0,59,-99.99,,,0.00,422,weatherlink.com 1.10,2013-08-23 21:24:00,
2013-08-23 17:39:00,70.7,56.0,30.11,WNW,294,11.0,-999.0,59,-99.99,,,0.00,373,weatherlink.com 1.10,2013-08-23 21:39:00,
2013-08-23 17:54:00,70.3,55.0,30.11,NNW,342,5.0,-999.0,59,-99.99,,,0.00,323,weatherlink.com 1.10,2013-08-23 21:54:00,
2013-08-23 18:09:00,70.2,56.0,30.11,NNW,329,2.0,-999.0,61,-99.99,,,0.00,279,weatherlink.com 1.10,2013-08-23 22:09:00,
2013-08-23 18:24:00,70.0,55.0,30.11,NW,317,5.0,-999.0,60,-99.99,,,0.00,230,weatherlink.com 1.10,2013-08-23 22:24:00,
2013-08-23 18:39:00,69.7,56.0,30.11,NNW,340,4.0,-999.0,61,-99.99,,,0.00,181,weatherlink.com 1.10,2013-08-23 22:39:00,
2013-08-23 18:54:00,69.5,56.0,30.11,NNW,329,5.0,-999.0,63,-99.99,,,0.00,128,weatherlink.com 1.10,2013-08-23 22:54:00,
2013-08-23 19:09:00,69.5,56.0,30.11,NNW,335,5.0,-999.0,63,-99.99,,,0.00,83,weatherlink.com 1.10,2013-08-23 23:09:00,
2013-08-23 19:24:00,69.0,56.0,30.11,NNW,336,2.0,-999.0,64,-99.99,,,0.00,37,weatherlink.com 1.10,2013-08-23 23:24:00,
2013-08-23 19:39:00,68.1,57.0,30.11,NNW,334,2.0,-999.0,67,-99.99,,,0.00,12,weatherlink.com 1.10,2013-08-23 23:39:00,
2013-08-23 19:54:00,67.1,57.0,30.12,NNW,334,0.0,-999.0,71,-99.99,,,0.00,5,weatherlink.com 1.10,2013-08-23 23:54:00,
2013-08-23 20:09:00,66.1,57.0,30.12,NNW,334,0.0,-999.0,73,-99.99,,,0.00,0,weatherlink.com 1.10,2013-08-24 00:09:00,
2013-08-23 20:24:00,65.0,57.0,30.12,NNW,334,0.0,-999.0,76,-99.99,,,0.00,0,weatherlink.com 1.10,2013-08-24 00:24:00,
2013-08-23 20:39:00,63.5,57.0,30.13,NNW,334,0.0,-999.0,79,-99.99,,,0.00,0,weatherlink.com 1.10,2013-08-24 00:39:00,
2013-08-23 21:09:00,61.9,56.0,30.15,NNW,334,0.0,-999.0,82,-99.99,,,0.00,0,weatherlink.com 1.10,2013-08-24 01:09:00,
2013-08-23 21:24:00,61.3,56.0,30.15,NNW,334,0.0,-999.0,83,-99.99,,,0.00,0,weatherlink.com 1.10,2013-08-24 01:24:00,
2013-08-23 21:39:00,60.8,56.0,30.15,NNW,334,0.0,-999.0,84,-99.99,,,0.00,0,weatherlink.com 1.10,2013-08-24 01:39:00,
2013-08-23 21:54:00,60.3,56.0,30.16,NNW,334,0.0,-999.0,84,-99.99,,,0.00,0,weatherlink.com 1.10,2013-08-24 01:54:00,
2013-08-23 22:09:00,59.7,56.0,30.16,NNW,334,0.0,-999.0,86,-99.99,,,0.00,0,weatherlink.com 1.10,2013-08-24 02:09:00,
2013-08-23 22:24:00,59.3,55.0,30.16,NNW,334,0.0,-999.0,86,-99.99,,,0.00,0,weatherlink.com 1.10,2013-08-24 02:24:00,
2013-08-23 22:39:00,58.9,55.0,30.16,NNW,334,0.0,-999.0,87,-99.99,,,0.00,0,weatherlink.com 1.10,2013-08-24 02:39:00,
2013-08-23 22:54:00,58.4,55.0,30.17,NNW,334,0.0,-999.0,88,-99.99,,,0.00,0,weatherlink.com 1.10,2013-08-24 02:54:00,
2013-08-23 23:09:00,58.1,55.0,30.17,NNW,334,0.0,-999.0,89,-99.99,,,0.00,0,weatherlink.com 1.10,2013-08-24 03:09:00,
2013-08-23 23:24:00,57.7,55.0,30.18,NNW,334,0.0,-999.0,89,-99.99,,,0.00,0,weatherlink.com 1.10,2013-08-24 03:24:00,
2013-08-23 23:39:00,57.5,55.0,30.18,NNW,334,0.0,-999.0,90,-99.99,,,0.00,0,weatherlink.com 1.10,2013-08-24 03:39:00,
2013-08-23 23:54:00,57.2,54.0,30.18,NNW,334,0.0,-999.0,90,-99.99,,,0.00,0,weatherlink.com 1.10,2013-08-24 03:54:00,